Location: Franzen
(48.6167°N, 15.3833°E)
Time: 18:45:33
(UTC+00:00)

A-11 Canister half - Pass Details

Date: 28 July 2021
Orbit: 1515 x 1685 km, 47.2° (Epoch: 19 September)

Event Time Altitude Azimuth Distance (km) Brightness Sun altitude
Rises 18:21:39 0° 249° (WSW) 4,832 12.3 2.1°
Reaches altitude 10° 18:24:44 10° 248° (WSW) 3,868 11.8 1.6°
Maximum altitude 18:34:39 76° 165° (SSE) 1,713 9.3 0.2°
Drops below altitude 10° 18:44:49 10° 82° (E) 3,953 10.7 -1.3°
Sets 18:48:00 0° 81° (E) 4,942 11.2 -1.7°
